This is the latest recevied weather packets stored in our database for station/object N7CEE. If no packets are shown the sender has not sent any weather packets the latest 10 day(s).
| Time | Temp. | Humidity | Pressure | Rain* | Wind** | Luminosity | Snow |
|---|---|---|---|---|---|---|---|
| 1788137407 | 72° F | 59% | 771.3 mmHg | 0 in | - | 50 W/m² | - |
| 1788137104 | 72° F | 58% | 771.2 mmHg | 0 in | - | 59 W/m² | - |
| 1788136799 | 72° F | 59% | 771.1 mmHg | 0 in | - | 67 W/m² | - |
| 1788136496 | 72° F | 58% | 771.2 mmHg | 0 in | - | 66 W/m² | - |
| 1788136195 | 72° F | 58% | 771.4 mmHg | 0 in | - | 59 W/m² | - |
| 1788135894 | 72° F | 58% | 771.1 mmHg | 0 in | - | 53 W/m² | - |
| 1788135589 | 72° F | 58% | 771 mmHg | 0 in | - | 50 W/m² | - |
| 1788135284 | 72° F | 57% | 771.2 mmHg | 0 in | - | 45 W/m² | - |
| 1788134981 | 73° F | 56% | 770.9 mmHg | 0 in | - | 41 W/m² | - |
| 1788134677 | 73° F | 56% | 771.1 mmHg | 0 in | - | 46 W/m² | - |
| 1788134375 | 73° F | 55% | 771.1 mmHg | 0 in | - | 52 W/m² | - |
| 1788134071 | 74° F | 54% | 771.2 mmHg | 0 in | - | 60 W/m² | - |
| 1788133766 | 75° F | 53% | 771.1 mmHg | 0 in | - | 74 W/m² | - |
| 1788133461 | 74° F | 52% | 771.1 mmHg | 0 in | - | 81 W/m² | - |
| 1788133157 | 75° F | 51% | 771.3 mmHg | 0 in | - | 85 W/m² | - |
| 1788132852 | 76° F | 50% | 771.3 mmHg | 0 in | - | 107 W/m² | - |
| 1788132547 | 75° F | 51% | 771.3 mmHg | 0 in | - | 278 W/m² | - |
| 1788132243 | 76° F | 49% | 771.2 mmHg | 0 in | - | 119 W/m² | - |
| 1788131940 | 77° F | 49% | 771.1 mmHg | 0 in | - | 97 W/m² | - |
| 1788131635 | 77° F | 49% | 771.5 mmHg | 0 in | - | 113 W/m² | - |
| 1788131334 | 75° F | 52% | 771.2 mmHg | 0 in | - | 141 W/m² | - |
| 1788131029 | 75° F | 53% | 771.2 mmHg | 0 in | - | 140 W/m² | - |
| 1788130729 | 75° F | 51% | 771.4 mmHg | 0 in | - | 80 W/m² | - |
| 1788130424 | 77° F | 50% | 771.3 mmHg | 0 in | - | 91 W/m² | - |
| 1788130119 | 77° F | 48% | 771.3 mmHg | 0 in | - | 133 W/m² | - |
* Rain latest hour (hover to see other rain measurements)
** Current wind speed in m/s (hover to see current wind gust speed)